sat.trackr.live / text

‹ back to catalog

STARLINK-2499

NORAD 48377 · 2021-038AA

PAYLOAD ACTIVE UNKNOWN

§ Identity

Operator
Country
US
Launch date
2021-05-04
Launch site
AFETR
Launch vehicle
Mass (kg)
RCS (m²)

Purposes: comms

External: N2YO · Heavens-Above · Gunter

§ Orbital elements

Epoch: 2026-09-15T12:45:44.578944Z

Period
94.01 min
Inclination
53.1599°
Eccentricity
0.0001428
Mean motion
15.31700325 rev/d
Perigee alt
469.8 km
Apogee alt
471.7 km
Semi-major
6,848.9 km
B*
2.9585e-5
RAAN
184.3776°
Arg perigee
99.6475°
Mean anomaly
260.4688°
Rev number
29,631

§ Raw data

STARLINK-24991 48377U 21038AA  26258.53176596  .00000553  00000+0  29585-4 0  99932 48377  53.1599 184.3776 0001428  99.6475 260.4688 15.31700325296316

JSON: /api/v1/satellites/48377 · /tle

For live sub-satellite position, see the globe view (requires WebGL).

§ Visibility from observer

Set your observer location to see the next 7 days of passes ≥ 10°. The values pass through the URL so the page stays shareable.

No JS? Fill the form by hand. The geolocation button needs JavaScript.